This demonstration page uses our WeatherBlox Daily Observations layout. Learn more.

Left ArrowRight Arrow

Hourly Observations for July 2, 2022

Temp ( °F °C ) Dew Point ( °F °C ) Humidity (%) Winds ( mph kmh ) Pressure ( in mb ) Visibility ( mi km ) Precip ( " mm )
12:56 am 00:56 Clear 62 16.7 60 15.6 93 93 NNE 6 9 30.04 1017 10 16 0.00 0.00
1:56 am 01:56 Clear 61 16.1 59 15 93 93 ENE 3 6 30.01 1016 10 16 0.00 0.00
2:56 am 02:56 Clear 62 16.7 60 15.6 93 93 Calm 30.00 1016 10 16 0.00 0.00
3:56 am 03:56 Cloudy 63 17.2 61 16.1 93 93 NW 8 13 30.01 1016 10 16 0.00 0.00
4:16 am 04:16 Cloudy 63 17 61 16 94 94 NNW 10 17 30.01 1016 10 16 0.00 0.00
4:23 am 04:23 Cloudy 64 18 61 16 88 88 N 8 13 29.99 1016 10 16 0.00 0.00
4:56 am 04:56 Cloudy 63 17.2 61 16.1 93 93 NNE 3 6 30.00 1016 8 13 0.00 0.00
5:03 am 05:03 Cloudy 63 17 61 16 94 94 Calm 29.99 1016 8 13 0.00 0.00
5:56 am 05:56 Partly Cloudy with Mist and Fog 62 16.7 61 16.1 96 96 ESE 5 7 29.98 1015 6 10 0.00 0.00
6:56 am 06:56 Sunny with Mist and Fog 64 17.8 63 17.2 96 96 S 7 11 29.97 1015 6 10 0.00 0.00
7:34 am 07:34 Mostly Cloudy 66 19 64 18 94 94 S 9 15 29.95 1014 7 11 0.00 0.00
7:51 am 07:51 Cloudy 66 19 64 18 94 94 S 8 13 29.96 1015 9 14 0.00 0.00
7:56 am 07:56 Cloudy 68 20 65 18.3 90 90 S 7 11 29.98 1015 10 16 0.00 0.00
8:53 am 08:53 Cloudy with Mist and Fog 66 19 64 18 94 94 SSE 9 15 29.98 1015 6 10 0.00 0.00
8:56 am 08:56 Cloudy with Mist and Fog 67 19.4 65 18.3 93 93 SE 9 15 30.01 1016 4 6 0.00 0.00
9:06 am 09:06 Cloudy with Mist and Fog 66 19 66 19 100 100 SE 9 15 29.98 1015 2 3 0.00 0.00
9:22 am 09:22 Cloudy with Mist and Fog 66 19 66 19 100 100 SE 13 20 29.97 1015 3 4 0.00 0.00
9:31 am 09:31 Cloudy with Mist and Fog 66 19 66 19 100 100 SE 14 22 29.97 1015 3 5 0.00 0.00
9:56 am 09:56 Cloudy with Mist and Fog 67 19.4 66 18.9 97 97 SE 9 15 30.01 1016 3 5 0.00 0.00
10:05 am 10:05 Cloudy with Mist and Fog 66 19 66 19 100 100 SE 10 17 29.99 1016 3 4 0.00 0.00
10:14 am 10:14 Cloudy with Mist and Fog 66 19 66 19 100 100 SE 9 15 29.98 1015 4 6 0.00 0.00
10:56 am 10:56 Cloudy 71 21.7 67 19.4 87 87 SSE 15 24 30.00 1016 10 16 0.00 0.00
11:07 am 11:07 Cloudy 72 22 66 19 83 83 S 14 22 29.96 1015 10 16 0.00 0.00
11:36 am 11:36 Partly Cloudy 75 24 66 19 74 74 S 13 20 29.95 1014 10 16 0.00 0.00
11:56 am 11:56 Mostly Cloudy 74 23.3 66 18.9 76 76 S 14 22 30.01 1016 10 16 0.00 0.00
12:12 pm 12:12 Cloudy 75 24 64 18 69 69 SSE 12 19 29.95 1014 10 16 0.00 0.00
12:26 pm 12:26 Mostly Cloudy 77 25 66 19 69 69 S 10 17 29.94 1014 10 16 0.00 0.00
12:56 pm 12:56 Partly Cloudy 77 25 66 18.9 69 69 SSW 9 15 30.01 1016 10 16 0.00 0.00
1:56 pm 13:56 Cloudy 78 25.6 66 18.9 67 67 S 6 9 30.00 1016 10 16 0.00 0.00
2:56 pm 14:56 Mostly Sunny 80 26.7 65 18.3 60 60 VRB 7 11 29.99 1016 10 16 0.00 0.00
3:56 pm 15:56 Partly Cloudy 83 28.3 66 18.9 57 57 SSE 8 13 29.98 1015 10 16 0.00 0.00
4:56 pm 16:56 Sunny 83 28.3 66 18.9 57 57 SSE 8 13 29.96 1015 10 16 0.00 0.00
5:56 pm 17:56 Sunny 81 27.2 66 18.9 61 61 E 8 13 29.96 1015 10 16 0.00 0.00
6:56 pm 18:56 Sunny 82 27.8 67 19.4 60 60 E 10 17 29.95 1014 10 16 0.00 0.00
7:56 pm 19:56 Sunny 80 26.7 67 19.4 64 64 SE 10 17 29.95 1014 10 16 0.00 0.00
8:56 pm 20:56 Sunny 75 23.9 67 19.4 76 76 ESE 7 11 29.96 1015 10 16 0.00 0.00
9:56 pm 21:56 Clear 72 22.2 67 19.4 84 84 ESE 9 15 29.98 1015 10 16 0.00 0.00
10:56 pm 22:56 Clear 69 20.6 66 18.9 90 90 SE 7 11 30.00 1016 10 16 0.00 0.00
11:56 pm 23:56 Clear 68 20 65 18.3 90 90 SE 7 11 30.01 1016 10 16 0.00 0.00

Powered by AerisWeather